z/d,0,0,50,50,100,100,150,150,200,200,300,300,400,400,500,500,600,600,750,750,1000,1000,1250,1250,1500,1500,1750,1750,1900,1900,2000,2000
2018.12.07-01:00,.70,296.69,.81,307.46,.74,312.09,.72,331.42,.70,338.58,.45,335.81,.38,323.80,.28,315.29,.21,292.96,.09,263.24,.03,160.48,.07,33.52,.12,58.24,.10,67.99,.05,139.97,.06,178.21
2018.12.07-02:00,.69,283.99,.76,296.72,.75,302.17,.70,322.17,.65,333.62,.42,329.69,.38,321.76,.29,313.80,.22,293.21,.13,261.82,.06,220.19,.04,353.45,.08,56.14,.06,80.40,.07,173.67,.07,184.82
2018.12.07-03:00,.72,271.90,.75,284.45,.79,294.11,.72,312.83,.64,327.16,.42,322.35,.37,319.86,.29,313.29,.22,293.42,.16,259.29,.09,233.82,.05,308.11,.04,49.38,.04,118.30,.10,190.06,.08,188.77
2018.12.07-04:00,.78,267.08,.81,277.04,.85,291.10,.77,307.91,.64,321.54,.44,315.56,.37,316.37,.28,311.97,.21,292.32,.17,254.90,.11,235.82,.06,291.33,.01,38.22,.05,163.41,.14,194.06,.09,189.75
2018.12.07-05:00,.87,270.17,.91,276.53,.91,292.32,.81,307.44,.64,318.33,.47,311.07,.37,311.58,.28,309.81,.20,290.58,.17,249.54,.11,232.17,.06,285.67,.01,124.72,.07,171.51,.18,191.71,.11,188.12
2018.12.07-06:00,.97,276.26,1.02,279.66,.96,294.52,.81,308.15,.62,316.30,.49,308.27,.38,307.51,.28,308.41,.19,290.02,.16,244.97,.10,224.84,.04,290.51,.02,125.86,.10,166.82,.21,186.97,.11,185.06
2018.12.07-07:00,1.06,282.00,1.11,283.64,1.00,296.27,.79,307.53,.59,313.35,.49,306.06,.40,306.06,.28,309.58,.17,292.16,.13,241.45,.08,211.86,.02,346.08,.04,111.13,.12,159.21,.23,181.77,.12,181.34
2018.12.07-08:00,1.11,288.03,1.15,288.74,.99,299.26,.77,307.18,.56,311.11,.49,305.61,.40,307.46,.26,312.70,.16,294.71,.12,237.51,.07,195.24,.03,58.05,.06,109.34,.14,156.62,.24,179.47,.11,178.80
2018.12.07-09:00,1.10,294.44,1.13,294.99,.95,303.33,.73,307.88,.54,310.26,.48,306.59,.40,309.83,.23,315.15,.14,293.82,.11,232.93,.08,185.49,.03,85.46,.06,116.07,.15,159.62,.26,180.36,.11,178.04
2018.12.07-10:00,1.08,299.58,1.12,300.32,.90,305.56,.71,307.67,.53,308.52,.49,307.16,.40,311.10,.21,314.62,.12,287.63,.12,229.29,.09,184.86,.04,116.25,.06,129.01,.15,165.71,.27,182.77,.11,178.07
2018.12.07-11:00,1.05,302.98,1.09,303.68,.85,304.53,.70,305.42,.54,304.40,.50,306.48,.40,310.89,.20,310.52,.13,277.55,.14,227.93,.11,190.63,.05,152.93,.06,150.16,.16,174.56,.29,186.30,.11,178.44
2018.12.07-12:00,.96,304.25,1.03,304.48,.82,300.54,.69,301.83,.55,298.51,.50,304.75,.40,309.91,.19,303.45,.15,267.37,.17,229.09,.14,200.48,.07,185.25,.07,179.16,.17,186.27,.31,191.19,.12,179.64
2018.12.07-13:00,.85,300.92,.94,300.83,.80,293.34,.69,297.18,.57,291.57,.49,301.46,.39,308.10,.19,294.45,.18,259.19,.20,231.25,.18,210.84,.11,206.65,.10,204.05,.19,198.25,.33,196.52,.12,181.21
2018.12.07-14:00,.73,290.29,.83,291.29,.81,283.54,.69,291.07,.61,284.59,.48,295.35,.37,304.29,.20,284.80,.21,252.55,.23,233.16,.21,220.01,.14,221.10,.12,220.85,.21,208.03,.36,201.05,.13,182.09
2018.12.07-15:00,.65,272.96,.76,276.99,.86,274.07,.70,283.68,.66,278.98,.48,287.32,.35,297.95,.21,274.83,.24,246.90,.26,233.88,.22,227.31,.16,231.79,.14,232.08,.22,214.33,.37,203.66,.14,181.33
2018.12.07-16:00,.67,256.88,.76,264.16,.93,268.90,.73,277.64,.70,276.22,.51,281.84,.34,291.93,.22,268.00,.26,243.04,.27,232.85,.22,231.46,.17,238.68,.15,237.84,.21,215.51,.38,203.34,.15,178.93
2018.12.07-17:00,.72,249.94,.80,258.39,.97,269.21,.77,275.52,.72,276.19,.54,281.67,.33,289.71,.23,266.66,.27,242.35,.27,230.85,.21,231.42,.16,241.15,.14,237.16,.21,210.32,.39,200.21,.16,175.65
2018.12.07-18:00,.79,250.96,.85,258.27,.98,272.52,.77,276.24,.70,277.11,.54,284.87,.32,290.35,.24,269.39,.27,245.13,.26,229.39,.18,227.44,.14,240.52,.12,231.07,.20,199.90,.40,195.63,.16,172.04
2018.12.07-19:00,.86,253.41,.91,258.09,.93,274.19,.73,275.38,.66,276.21,.51,287.23,.30,289.27,.24,272.21,.27,250.03,.24,229.94,.14,221.94,.10,242.88,.09,223.95,.18,187.03,.39,191.19,.16,168.56
2018.12.07-20:00,.95,256.56,.98,258.98,.87,274.13,.71,273.51,.63,275.03,.48,288.13,.28,286.50,.23,275.49,.25,255.78,.20,230.47,.10,208.25,.05,246.50,.05,203.81,.17,171.27,.37,186.60,.16,165.23
2018.12.07-21:00,1.00,260.95,1.02,262.28,.83,274.02,.72,273.39,.63,275.20,.47,289.42,.28,285.51,.23,280.42,.22,262.54,.17,229.36,.09,181.87,.01,219.43,.04,150.72,.17,158.00,.35,182.82,.15,163.01
2018.12.07-22:00,1.00,265.88,1.02,266.89,.79,273.64,.75,274.47,.64,275.42,.47,290.44,.28,285.35,.22,284.77,.20,269.27,.14,227.24,.10,165.12,.02,123.74,.05,129.41,.18,152.88,.34,181.83,.15,162.76
2018.12.07-23:00,.98,270.20,1.00,271.49,.79,272.60,.78,275.84,.66,275.10,.45,289.67,.29,283.73,.21,285.44,.18,272.99,.13,225.39,.12,165.36,.03,136.46,.04,137.18,.17,156.42,.33,184.34,.14,164.45
2018.12.07-24:00,.97,271.08,.99,273.05,.82,270.31,.79,276.31,.69,274.80,.44,285.99,.31,280.08,.21,281.39,.18,271.91,.14,225.19,.13,174.91,.04,170.13,.04,170.86,.17,166.52,.33,188.77,.14,167.62
2018.12.08-01:00,1.00,267.53,1.02,269.90,.90,267.14,.80,274.86,.72,274.50,.43,279.71,.32,275.47,.22,275.20,.18,266.86,.16,226.73,.15,189.37,.06,206.57,.05,214.45,.17,180.92,.34,194.00,.14,171.57
2018.12.08-02:00,1.06,261.88,1.07,264.21,.99,264.02,.81,270.96,.72,272.89,.43,270.59,.34,269.86,.25,269.22,.19,260.74,.20,229.57,.18,204.58,.09,228.30,.09,235.11,.19,195.36,.37,199.05,.14,175.46
2018.12.08-03:00,1.13,256.70,1.14,258.69,1.07,261.14,.82,265.04,.71,268.54,.46,259.57,.37,263.01,.29,265.36,.22,256.37,.23,232.15,.21,216.23,.13,239.56,.12,243.75,.22,205.56,.39,202.48,.15,177.90
2018.12.08-04:00,1.22,254.59,1.23,256.20,1.14,259.72,.87,260.25,.71,262.85,.52,251.79,.42,257.69,.34,264.97,.26,254.78,.26,232.95,.23,222.43,.15,244.18,.14,245.66,.25,209.90,.41,203.03,.16,178.35
2018.12.08-05:00,1.29,255.53,1.31,256.85,1.18,259.59,.93,258.50,.72,257.96,.58,249.35,.46,255.73,.38,267.81,.28,255.87,.27,232.66,.25,224.54,.16,244.72,.15,243.37,.27,210.05,.44,201.68,.17,177.79
2018.12.08-06:00,1.33,259.32,1.35,260.17,1.17,260.23,.96,259.60,.73,255.11,.63,250.83,.50,256.31,.40,272.45,.29,259.04,.28,232.42,.25,223.85,.15,241.87,.16,238.38,.28,207.55,.46,199.67,.18,176.77
2018.12.08-07:00,1.28,264.36,1.31,265.00,1.11,260.85,.95,262.35,.77,254.99,.66,254.45,.53,258.28,.41,277.11,.29,263.10,.28,233.10,.24,221.33,.14,236.43,.15,231.96,.29,203.45,.48,197.75,.18,175.59
2018.12.08-08:00,1.15,266.75,1.19,267.44,1.00,257.81,.91,263.31,.79,255.29,.66,257.47,.55,260.44,.39,280.91,.28,265.80,.27,235.30,.23,220.46,.13,234.62,.14,229.79,.29,201.01,.48,197.84,.18,175.21
2018.12.08-09:00,1.04,267.59,1.08,268.01,.95,253.09,.86,263.26,.81,256.19,.64,259.73,.54,262.35,.35,283.06,.25,265.37,.26,236.55,.21,220.10,.12,234.65,.13,230.68,.27,200.06,.47,199.58,.17,175.22
2018.12.08-10:00,.98,268.80,1.02,268.65,.99,251.07,.85,263.49,.85,258.42,.63,261.05,.53,263.32,.30,281.42,.22,259.92,.24,234.92,.20,219.13,.11,234.40,.11,233.09,.26,200.09,.46,202.12,.16,174.81
2018.12.08-11:00,.93,268.97,.98,268.05,1.06,251.48,.84,262.63,.86,260.57,.61,260.15,.51,262.26,.24,272.81,.20,246.61,.23,231.26,.20,221.38,.12,239.30,.11,241.25,.25,203.82,.45,206.37,.15,175.10
2018.12.08-12:00,.88,265.02,.93,263.55,1.13,252.67,.83,259.72,.85,261.73,.59,257.31,.49,259.00,.22,255.91,.21,231.08,.25,228.39,.21,227.64,.14,248.18,.13,252.07,.25,211.43,.45,211.95,.15,176.84
2018.12.08-13:00,.88,256.91,.94,255.57,1.21,254.44,.86,255.96,.83,262.07,.61,254.98,.49,255.30,.25,241.13,.25,222.72,.27,226.62,.23,233.22,.17,254.38,.16,258.71,.25,218.73,.45,216.57,.14,178.61
2018.12.08-14:00,.99,247.12,1.04,246.36,1.27,255.41,.93,252.90,.83,261.15,.65,254.66,.52,253.35,.31,236.48,.31,222.71,.30,226.39,.25,236.74,.20,258.10,.18,261.93,.26,224.40,.45,219.83,.14,179.83
2018.12.08-15:00,1.17,240.05,1.22,239.83,1.30,255.00,1.02,251.07,.82,258.36,.69,255.17,.55,252.84,.38,237.92,.37,227.96,.33,228.26,.26,238.65,.21,260.61,.20,263.49,.27,228.50,.45,222.06,.15,180.41
2018.12.08-16:00,1.34,237.73,1.39,238.24,1.29,253.56,1.09,250.56,.84,254.20,.72,255.38,.59,253.15,.45,242.08,.42,236.08,.36,232.08,.26,238.91,.21,262.26,.20,263.99,.27,230.30,.44,222.82,.14,179.54
2018.12.08-17:00,1.43,238.21,1.49,240.81,1.24,251.57,1.13,250.83,.88,250.49,.74,254.94,.62,254.08,.52,247.30,.47,245.50,.37,237.56,.25,237.31,.19,263.08,.18,263.63,.25,229.08,.41,221.55,.14,177.21
2018.12.08-18:00,1.41,240.65,1.49,245.82,1.18,250.12,1.13,252.21,.93,249.42,.75,254.79,.65,256.03,.56,252.60,.50,255.32,.37,244.28,.22,233.54,.15,262.28,.14,261.20,.22,223.67,.38,217.85,.14,174.27
2018.12.08-19:00,1.36,245.76,1.44,251.81,1.13,249.70,1.10,254.88,.96,251.55,.73,255.50,.64,259.18,.56,258.00,.48,265.81,.34,251.63,.19,228.23,.11,259.62,.11,255.04,.19,214.18,.35,212.51,.15,171.86
2018.12.08-20:00,1.29,251.59,1.37,257.48,1.10,250.15,1.04,258.30,.95,256.68,.69,257.91,.60,264.13,.52,264.40,.44,277.66,.29,258.78,.17,221.68,.07,254.74,.07,243.36,.17,202.44,.33,207.09,.15,170.24
2018.12.08-21:00,1.20,255.59,1.27,261.41,1.06,251.07,.96,261.73,.91,263.88,.66,262.90,.55,271.26,.47,272.47,.38,291.06,.24,264.79,.15,214.53,.05,245.73,.05,225.50,.16,191.95,.32,203.09,.15,169.28
2018.12.08-22:00,1.13,257.01,1.19,263.35,1.05,252.48,.88,264.24,.85,270.86,.62,268.92,.51,278.62,.41,280.59,.33,304.37,.18,269.37,.14,209.42,.03,236.39,.04,213.23,.16,186.22,.31,201.63,.15,168.64
2018.12.08-23:00,1.12,256.68,1.19,263.42,1.06,254.57,.83,265.26,.78,275.72,.58,274.10,.46,284.41,.36,286.79,.27,315.66,.14,272.90,.13,209.23,.03,240.72,.04,221.79,.16,186.76,.31,203.02,.14,168.22
2018.12.08-24:00,1.18,256.03,1.24,262.68,1.10,257.07,.80,264.17,.71,277.14,.54,276.51,.41,287.09,.32,289.22,.23,322.25,.11,274.74,.14,214.90,.04,254.94,.05,246.41,.15,194.15,.31,207.06,.13,168.71
2018.12.09-01:00,1.25,255.28,1.30,261.25,1.12,258.96,.80,260.86,.65,274.85,.51,275.69,.35,286.14,.29,288.04,.19,321.48,.11,273.12,.16,224.30,.07,261.77,.08,260.12,.16,207.01,.32,213.07,.13,171.32
2018.12.09-02:00,1.31,254.19,1.34,258.82,1.12,258.90,.83,256.10,.61,267.60,.49,270.98,.31,279.08,.28,283.32,.18,312.31,.12,269.79,.20,233.48,.12,265.06,.13,264.95,.19,220.04,.35,219.68,.12,175.99
2018.12.09-03:00,1.36,254.58,1.38,256.76,1.12,257.47,.93,253.11,.64,257.79,.52,264.23,.32,266.13,.29,275.30,.19,298.02,.15,266.37,.23,238.99,.15,266.81,.16,266.58,.21,228.28,.37,224.68,.12,179.95
2018.12.09-04:00,1.40,255.00,1.41,256.56,1.14,255.92,1.03,252.41,.75,250.70,.59,258.82,.38,255.07,.33,267.11,.21,284.60,.18,263.40,.24,241.79,.17,268.19,.18,267.52,.22,233.23,.37,228.31,.12,182.12
2018.12.09-05:00,1.38,256.35,1.40,257.82,1.16,255.42,1.11,253.97,.88,249.10,.68,257.76,.47,251.84,.38,263.31,.25,276.96,.20,261.49,.25,241.38,.16,266.61,.18,265.79,.21,234.33,.36,229.83,.12,182.37
2018.12.09-06:00,1.34,258.90,1.35,260.22,1.16,256.60,1.14,257.58,1.00,252.19,.76,260.66,.55,254.61,.42,264.70,.28,275.76,.21,261.04,.25,237.76,.15,259.98,.16,259.32,.20,230.32,.34,228.25,.12,180.93
2018.12.09-07:00,1.29,262.00,1.30,263.22,1.14,258.76,1.13,261.48,1.06,256.98,.80,264.64,.58,258.83,.43,269.13,.28,278.56,.21,262.28,.25,233.98,.14,250.58,.14,249.81,.19,224.04,.32,225.17,.12,179.52
2018.12.09-08:00,1.27,264.70,1.28,265.83,1.13,260.69,1.08,264.14,1.05,261.11,.78,267.14,.56,261.02,.40,272.96,.26,281.31,.21,264.23,.25,232.94,.13,245.15,.13,243.54,.18,219.49,.30,222.93,.13,178.35
2018.12.09-09:00,1.29,266.84,1.30,268.06,1.14,262.67,1.04,266.23,1.02,264.98,.75,268.43,.53,261.34,.36,273.69,.23,280.63,.19,264.56,.24,233.56,.12,243.66,.11,240.57,.16,215.92,.27,221.19,.12,176.24
2018.12.09-10:00,1.29,268.16,1.31,269.77,1.14,264.93,1.01,268.95,.99,269.86,.72,270.71,.51,262.73,.32,272.04,.19,275.32,.17,262.53,.23,233.71,.11,241.48,.09,235.13,.15,210.75,.25,217.98,.12,173.07
2018.12.09-11:00,1.29,267.33,1.32,269.27,1.13,265.59,.98,270.69,.96,273.92,.69,273.09,.51,265.09,.31,269.65,.17,267.28,.16,261.34,.23,235.04,.12,241.09,.09,230.08,.15,207.30,.25,214.62,.12,170.49
2018.12.09-12:00,1.33,264.74,1.34,266.74,1.14,264.34,.95,269.70,.91,275.32,.64,273.46,.50,266.67,.32,266.95,.18,260.31,.17,263.72,.23,238.15,.13,243.45,.10,229.05,.16,207.52,.26,212.69,.13,169.72
2018.12.09-13:00,1.37,262.64,1.38,264.39,1.18,262.75,.93,265.90,.85,273.61,.59,270.48,.50,266.63,.34,264.34,.21,255.94,.20,267.83,.25,241.92,.16,246.55,.12,231.30,.18,211.23,.28,213.08,.13,171.56
2018.12.09-14:00,1.38,260.48,1.38,262.05,1.21,260.96,.95,260.27,.82,268.25,.58,263.68,.51,264.73,.39,262.47,.26,254.89,.24,272.09,.28,245.83,.19,249.71,.15,234.87,.20,216.59,.31,215.42,.13,174.89
2018.12.09-15:00,1.37,257.67,1.38,258.98,1.27,259.11,1.05,255.86,.87,261.03,.64,256.05,.55,261.71,.44,261.60,.32,256.61,.27,276.19,.30,248.73,.21,251.68,.17,236.78,.22,220.59,.33,217.70,.13,177.69
2018.12.09-16:00,1.38,255.31,1.38,256.31,1.32,258.02,1.19,254.82,.98,255.90,.74,251.25,.60,259.20,.49,261.97,.36,260.12,.28,280.83,.30,249.54,.22,251.50,.19,236.15,.24,222.53,.35,219.22,.14,179.59
2018.12.09-17:00,1.40,254.69,1.40,255.44,1.36,258.09,1.29,256.23,1.08,254.18,.83,249.66,.66,258.45,.53,263.69,.40,265.26,.28,286.89,.30,247.76,.22,248.58,.19,232.69,.25,222.37,.36,219.73,.14,180.58
2018.12.09-18:00,1.39,255.73,1.39,256.40,1.35,259.17,1.31,258.60,1.13,254.97,.89,250.61,.69,259.64,.55,266.16,.41,271.38,.27,294.79,.29,243.99,.22,243.35,.20,227.21,.25,220.72,.37,219.31,.14,180.39
2018.12.09-19:00,1.36,256.07,1.36,256.65,1.31,259.64,1.26,260.22,1.13,256.38,.91,252.73,.71,261.98,.54,268.79,.40,278.27,.25,305.20,.27,240.54,.20,238.86,.19,222.83,.24,219.68,.36,219.16,.14,179.13
2018.12.09-20:00,1.32,256.10,1.32,256.57,1.29,260.10,1.19,261.23,1.09,257.90,.89,255.52,.70,265.16,.51,271.81,.37,286.27,.23,318.24,.24,237.35,.18,235.01,.17,218.94,.22,218.67,.33,218.59,.13,176.11
2018.12.09-21:00,1.30,256.41,1.29,256.86,1.27,261.81,1.13,262.81,1.03,260.01,.84,259.23,.67,268.90,.46,275.52,.33,295.08,.20,333.99,.21,233.54,.15,230.04,.16,213.94,.20,216.25,.30,216.37,.13,171.05
2018.12.09-22:00,1.30,256.15,1.30,256.70,1.27,263.85,1.09,264.47,.98,261.97,.78,262.85,.63,272.24,.41,279.40,.28,303.84,.18,351.27,.19,230.40,.13,225.25,.14,209.23,.17,213.10,.27,212.69,.13,165.30
2018.12.09-23:00,1.36,255.23,1.36,255.97,1.27,264.91,1.06,265.38,.94,262.76,.72,264.90,.57,274.17,.35,282.29,.24,310.71,.16,6.01,.18,230.57,.12,224.62,.12,208.80,.16,211.98,.24,209.29,.13,161.09
2018.12.09-24:00,1.46,254.26,1.46,255.15,1.27,264.16,1.04,264.98,.91,261.79,.66,263.93,.51,273.30,.30,281.39,.20,311.63,.14,15.08,.19,235.49,.11,231.47,.12,216.30,.15,216.08,.23,208.72,.13,159.83
2018.12.10-01:00,1.53,253.56,1.54,254.52,1.28,261.61,1.03,263.42,.91,259.52,.63,259.93,.48,269.22,.27,274.33,.17,301.09,.10,15.27,.20,242.68,.12,241.96,.12,229.40,.15,224.92,.23,211.89,.12,161.65
2018.12.10-02:00,1.55,253.49,1.57,254.46,1.31,258.66,1.04,261.15,.95,257.26,.66,255.30,.48,263.29,.28,263.36,.17,281.87,.06,352.74,.23,248.31,.15,248.76,.14,239.58,.16,233.01,.24,216.48,.12,165.66
2018.12.10-03:00,1.57,253.91,1.58,254.79,1.40,257.00,1.10,258.62,1.04,256.16,.75,253.01,.53,258.11,.33,255.26,.22,269.79,.06,299.11,.25,250.63,.16,249.62,.16,242.45,.18,235.63,.26,218.59,.13,169.14
2018.12.10-04:00,1.61,254.30,1.62,255.05,1.49,256.60,1.20,256.77,1.15,256.26,.86,253.08,.61,255.28,.40,252.01,.28,266.51,.10,277.26,.27,250.58,.17,246.45,.17,240.75,.19,234.66,.28,218.95,.13,172.37
2018.12.10-05:00,1.64,255.43,1.65,255.97,1.55,257.19,1.29,256.18,1.24,257.17,.95,254.17,.69,254.35,.46,251.16,.33,265.86,.14,270.83,.27,248.72,.18,240.72,.18,236.41,.20,231.76,.30,218.51,.14,175.39
2018.12.10-06:00,1.64,257.42,1.64,257.97,1.56,258.62,1.36,256.91,1.29,258.29,1.02,255.31,.77,254.66,.52,251.23,.37,265.74,.17,267.66,.27,245.55,.19,233.92,.18,231.04,.20,228.14,.32,217.89,.14,177.73
2018.12.10-07:00,1.61,259.77,1.60,260.45,1.54,260.42,1.39,258.38,1.29,258.88,1.04,255.69,.81,255.28,.56,251.50,.39,265.85,.17,265.19,.27,242.08,.19,228.36,.19,226.89,.21,225.52,.32,218.01,.14,179.62
2018.12.10-08:00,1.59,262.09,1.58,262.98,1.52,262.22,1.40,260.05,1.29,258.96,1.06,255.70,.82,255.87,.57,251.78,.38,265.76,.16,262.40,.26,238.21,.20,223.71,.19,223.51,.20,223.26,.32,218.21,.14,179.95
2018.12.10-09:00,1.63,263.96,1.60,265.12,1.51,263.50,1.39,261.37,1.28,258.88,1.08,256.86,.80,256.51,.57,252.53,.37,265.53,.14,259.01,.24,233.32,.20,218.58,.19,219.25,.19,219.60,.30,217.40,.13,177.77
2018.12.10-10:00,1.66,265.36,1.64,266.95,1.52,264.45,1.38,262.47,1.28,259.31,1.11,260.38,.77,257.23,.57,254.26,.36,265.27,.13,256.00,.23,227.51,.20,212.85,.18,213.41,.19,213.52,.28,214.70,.12,173.32
2018.12.10-11:00,1.67,266.22,1.65,268.14,1.53,265.06,1.36,263.17,1.27,260.08,1.10,265.23,.73,257.65,.57,256.74,.37,265.00,.15,255.07,.23,223.31,.21,209.25,.19,208.83,.19,207.65,.28,210.92,.12,168.57
2018.12.10-12:00,1.70,265.95,1.68,267.91,1.56,264.78,1.34,262.78,1.26,260.21,1.03,268.72,.70,256.69,.57,258.75,.38,263.97,.17,255.55,.25,223.00,.23,209.67,.20,208.23,.21,205.18,.27,207.88,.12,165.55
2018.12.10-13:00,1.74,265.14,1.72,266.81,1.60,263.88,1.34,260.82,1.26,258.99,.93,267.71,.70,253.46,.57,259.03,.40,261.50,.20,255.64,.27,226.15,.24,213.81,.22,211.76,.22,206.70,.28,206.84,.12,164.72
2018.12.10-14:00,1.77,264.15,1.74,265.59,1.65,263.03,1.36,257.82,1.27,256.62,.85,260.79,.72,248.76,.58,257.52,.42,258.45,.23,256.13,.30,231.17,.26,220.51,.24,218.13,.24,211.43,.29,208.21,.12,166.11
2018.12.10-15:00,1.76,262.55,1.73,263.79,1.68,261.87,1.40,254.52,1.31,253.81,.86,250.50,.78,245.15,.60,255.86,.45,256.92,.27,258.22,.32,236.04,.29,226.59,.26,223.66,.26,215.93,.31,209.81,.13,168.37
2018.12.10-16:00,1.75,260.37,1.73,261.46,1.70,260.20,1.48,252.04,1.38,251.82,.99,243.47,.87,244.72,.66,255.34,.51,257.22,.30,260.81,.34,238.97,.30,229.56,.28,225.67,.28,217.38,.33,209.39,.13,169.85
2018.12.10-17:00,1.75,258.24,1.74,259.23,1.72,258.31,1.57,250.92,1.47,250.85,1.19,241.87,.98,246.33,.73,255.29,.55,257.57,.32,262.60,.34,240.41,.31,230.86,.29,225.99,.29,217.54,.34,208.19,.14,171.57
2018.12.10-18:00,1.76,256.66,1.75,257.42,1.76,257.20,1.66,251.32,1.52,250.52,1.37,243.64,1.05,248.62,.77,255.12,.57,256.96,.32,263.63,.33,240.60,.31,231.59,.29,225.91,.29,217.58,.35,207.26,.14,173.48
2018.12.10-19:00,1.77,255.69,1.76,256.16,1.80,257.28,1.72,252.89,1.54,250.83,1.46,246.92,1.08,251.48,.79,255.12,.55,256.23,.30,265.19,.30,239.47,.30,231.07,.28,224.59,.28,216.36,.36,205.68,.15,174.44
2018.12.10-20:00,1.79,254.84,1.78,255.06,1.81,257.61,1.73,254.66,1.56,251.73,1.47,250.31,1.06,254.36,.77,255.36,.52,256.48,.27,269.02,.27,237.02,.27,228.62,.27,221.39,.26,212.98,.35,202.84,.15,173.67
2018.12.10-21:00,1.82,254.32,1.81,254.55,1.80,257.81,1.73,256.33,1.56,253.13,1.42,253.20,1.01,256.48,.74,255.84,.48,257.74,.23,275.09,.22,232.53,.25,224.07,.25,216.70,.25,207.99,.34,199.39,.14,171.69
2018.12.10-22:00,1.85,254.20,1.84,254.67,1.79,257.87,1.71,257.67,1.55,254.58,1.36,255.62,.95,257.46,.69,256.57,.43,259.21,.19,281.63,.19,225.87,.23,218.81,.23,212.05,.23,203.01,.33,196.18,.14,169.50
2018.12.10-23:00,1.89,254.53,1.88,255.22,1.80,257.96,1.70,258.50,1.54,255.73,1.30,257.42,.90,256.98,.65,256.83,.39,259.38,.14,284.62,.18,219.40,.21,215.34,.22,209.47,.22,199.94,.32,193.99,.13,167.56
2018.12.10-24:00,1.94,255.08,1.92,255.83,1.81,257.85,1.70,258.41,1.53,256.40,1.22,257.45,.87,254.80,.62,255.71,.36,256.85,.10,276.12,.18,217.56,.21,216.39,.22,211.33,.21,201.02,.30,193.95,.12,166.04
2018.12.11-01:00,1.95,255.15,1.92,255.89,1.80,257.14,1.69,257.38,1.53,256.69,1.15,254.59,.87,252.21,.60,253.17,.36,252.29,.10,255.22,.19,221.20,.21,222.06,.21,218.00,.20,207.23,.28,197.00,.11,165.74
2018.12.11-02:00,1.98,254.98,1.95,255.73,1.79,255.93,1.69,255.93,1.51,256.48,1.12,248.98,.90,250.74,.59,249.37,.38,247.64,.14,241.00,.22,227.02,.23,229.26,.23,226.52,.20,216.47,.27,202.76,.10,166.94
2018.12.11-03:00,2.03,254.62,2.00,255.51,1.81,254.27,1.70,254.32,1.49,255.48,1.15,243.22,.94,250.76,.61,245.22,.41,244.67,.20,237.56,.25,232.48,.26,235.03,.25,233.00,.22,224.52,.27,208.89,.10,168.49
2018.12.11-04:00,2.11,253.84,2.07,254.91,1.87,252.33,1.74,252.96,1.50,253.90,1.25,240.31,.96,251.19,.65,241.93,.46,243.30,.26,238.45,.29,236.14,.29,238.50,.27,235.92,.23,229.36,.28,213.17,.10,168.73
2018.12.11-05:00,2.19,253.18,2.15,254.23,1.96,251.05,1.81,252.44,1.54,252.46,1.38,240.89,.97,250.82,.71,240.52,.50,243.17,.32,240.17,.31,236.97,.30,239.22,.27,235.16,.23,231.03,.28,215.32,.10,168.08
2018.12.11-06:00,2.26,253.23,2.20,254.15,2.03,250.96,1.86,252.77,1.57,251.35,1.48,243.54,.97,248.91,.78,241.02,.55,243.94,.36,241.93,.32,235.16,.30,237.33,.27,231.63,.23,230.47,.28,216.45,.10,167.93
2018.12.11-07:00,2.28,253.87,2.22,254.73,2.07,251.59,1.89,253.37,1.60,250.09,1.52,246.52,.98,245.35,.85,242.55,.60,244.89,.40,243.81,.32,232.45,.30,234.26,.27,227.30,.22,229.16,.28,217.60,.10,168.77
2018.12.11-08:00,2.27,255.18,2.22,256.02,2.09,252.69,1.92,254.21,1.65,249.06,1.50,249.43,1.03,241.81,.90,244.67,.64,245.98,.42,246.06,.32,229.51,.29,229.84,.26,221.72,.20,225.32,.27,217.18,.10,169.46
2018.12.11-09:00,2.24,257.14,2.20,257.89,2.09,254.42,1.95,255.66,1.70,249.17,1.43,251.70,1.10,240.08,.92,246.98,.67,247.26,.44,248.58,.31,226.97,.29,224.15,.26,214.74,.18,216.95,.25,213.77,.10,169.77
2018.12.11-10:00,2.18,258.84,2.15,259.50,2.07,256.28,1.96,257.52,1.74,250.47,1.35,252.01,1.17,240.49,.92,249.04,.69,248.52,.45,250.75,.31,225.87,.29,219.17,.26,208.57,.17,206.09,.24,208.37,.10,170.11
2018.12.11-11:00,2.13,258.52,2.09,259.55,2.03,257.30,1.95,258.96,1.77,252.10,1.29,249.89,1.22,242.30,.90,250.86,.69,249.70,.44,252.16,.30,227.13,.30,217.52,.28,206.13,.18,198.66,.24,203.94,.10,171.08
2018.12.11-12:00,2.11,256.45,2.03,258.35,1.99,257.56,1.91,259.49,1.77,253.21,1.26,246.09,1.23,244.62,.87,252.26,.69,250.78,.42,252.63,.31,230.77,.32,219.60,.30,207.89,.20,197.25,.24,202.24,.11,172.96
2018.12.11-13:00,2.06,254.73,1.99,256.88,1.92,257.27,1.85,258.89,1.75,253.34,1.28,241.74,1.22,246.57,.85,252.49,.70,251.67,.42,252.56,.32,235.85,.34,223.84,.32,212.11,.22,199.90,.25,202.57,.10,174.88
2018.12.11-14:00,2.03,253.59,1.95,255.12,1.86,255.89,1.80,256.97,1.74,252.30,1.37,238.49,1.20,247.57,.86,251.25,.72,252.16,.43,252.84,.33,241.26,.37,228.69,.35,217.03,.24,203.87,.26,203.69,.10,175.57
2018.12.11-15:00,2.05,252.08,1.92,252.23,1.83,252.76,1.79,253.68,1.76,250.35,1.51,237.83,1.21,247.77,.91,249.91,.74,252.08,.47,253.61,.35,246.03,.39,233.33,.37,221.79,.25,207.88,.27,205.17,.10,175.21
2018.12.11-16:00,2.11,250.11,1.94,249.03,1.88,249.34,1.82,250.15,1.81,248.42,1.67,239.98,1.22,247.64,.97,250.37,.75,251.51,.49,253.96,.36,249.05,.41,236.72,.39,225.53,.27,211.21,.28,206.81,.09,175.11
2018.12.11-17:00,2.19,248.56,2.00,246.95,1.97,247.45,1.90,247.41,1.87,246.95,1.78,244.08,1.25,247.15,1.02,252.83,.76,251.34,.51,253.88,.36,250.31,.43,238.23,.40,227.52,.29,212.95,.29,207.89,.09,175.09
2018.12.11-18:00,2.25,247.96,2.08,246.33,2.08,247.33,1.99,245.95,1.93,245.97,1.81,248.71,1.30,247.06,1.04,255.69,.79,252.61,.53,254.22,.35,250.41,.43,237.96,.41,227.61,.31,212.55,.31,207.43,.10,174.47
2018.12.11-19:00,2.25,248.24,2.16,246.85,2.17,248.10,2.09,245.81,1.99,245.67,1.78,252.46,1.35,248.31,1.03,257.70,.81,255.09,.53,255.24,.33,250.10,.42,236.34,.40,226.15,.32,210.44,.32,205.37,.10,173.57
2018.12.11-20:00,2.23,248.97,2.20,247.56,2.21,248.67,2.16,246.49,2.05,246.23,1.70,254.71,1.40,250.44,1.00,259.20,.79,257.43,.51,255.95,.30,249.94,.39,234.27,.38,224.23,.32,208.36,.32,202.94,.10,172.15
2018.12.11-21:00,2.20,250.41,2.21,247.43,2.22,248.65,2.19,247.39,2.09,247.44,1.63,255.66,1.42,253.24,.96,261.17,.73,258.84,.47,256.24,.27,249.97,.37,232.12,.35,222.44,.30,207.38,.32,201.01,.10,172.24
2018.12.11-22:00,2.10,251.48,2.20,246.62,2.21,248.53,2.18,248.70,2.09,249.11,1.56,255.49,1.40,256.68,.90,263.20,.67,258.77,.43,255.98,.24,250.44,.34,229.90,.33,221.09,.29,208.07,.31,200.35,.10,174.82
2018.12.11-23:00,1.97,251.44,2.20,246.16,2.18,248.47,2.13,250.61,2.07,251.15,1.51,254.01,1.35,260.22,.81,263.67,.61,257.14,.41,254.73,.22,252.01,.32,228.19,.31,220.90,.27,210.97,.30,201.79,.10,179.08
2018.12.11-24:00,1.84,250.17,2.20,246.86,2.16,248.44,2.06,252.29,2.03,253.17,1.50,251.61,1.25,262.38,.73,260.78,.57,253.51,.40,252.05,.21,254.39,.32,228.80,.29,223.44,.25,217.58,.28,206.67,.09,184.88
2018.12.12-01:00,1.71,247.51,2.19,248.42,2.15,248.98,1.99,253.44,1.98,254.96,1.54,249.89,1.15,261.93,.68,254.16,.55,247.44,.41,247.45,.21,254.62,.32,232.04,.28,229.10,.23,228.53,.26,215.74,.08,192.54